Regional Weather Roundup
Issued by NWS Green Bay, WI

Home | Current Version | Previous Version | Text Only | Print | Product List | Glossary On
Versions: 1 2 3 4 5 6 7 8 9 10 11 12 13 14 15 16 17 18 19 20 21 22 23 24 25 26 27 28 29 30 31 32 33 34 35 36 37 38 39 40 41 42 43 44 45 46 47 48 49 50
000
ASUS43 KGRB 232200
RWRGRB

NORTH-CENTRAL AND NORTHEAST WISCONSIN REGIONAL WEATHER ROUNDUP
NATIONAL WEATHER SERVICE GREEN BAY WI
400 PM CST MON JAN 23 2017

WIZ005-009-010>012-018-019-232300-
NORTH CENTRAL WISCONSIN

CITY           SKY/WX    TMP DP  RH WIND       PRES   REMARKS
IRONWOOD       CLOUDY    35  34  96 W5        29.76R FOG
MANITOWISH WTR NOT AVBL
ARBOR VITAE    NOT AVBL
EAGLE RIVER    NOT AVBL
LAND O LAKES   NOT AVBL
RHINELANDER    CLOUDY    37  34  89 W6        29.74R
PHILLIPS       CLOUDY    35  35 100 CALM      29.75S
ANTIGO         NOT AVBL
TOMAHAWK       NOT AVBL
MERRILL        CLOUDY    37  34  90 W3          N/A
$$

WIZ013-073-232300-
NORTHEAST WISCONSIN

CITY           SKY/WX    TMP DP  RH WIND       PRES   REMARKS
IRON MOUNTAIN  CLOUDY    36  33  89 NW3       29.73R
MARINETTE      NOT AVBL
$$

WIZ017-030-035>037-045-232300-
CENTRAL WISCONSIN

CITY           SKY/WX    TMP DP  RH WIND       PRES   REMARKS
MEDFORD        NOT AVBL
WAUSAU         CLOUDY    35  33  92 W7        29.75R
MOSINEE        CLOUDY    36  36 100 W5        29.77R
MARSHFIELD     FOG       34  33  96 W5        29.77R VSB 1/4
WISC RAPIDS    CLOUDY    36  35  96 NW6       29.79R
STEVENS POINT  NOT AVBL
WAUPACA        NOT AVBL
SHAWANO        NOT AVBL
CLINTONVILLE   CLOUDY    37  34  87 CALM      29.76R
WAUTOMA        CLOUDY    36  34  92 W6        29.79R
$$

WIZ038-039-048-051-232300-
FOX VALLEY

CITY           SKY/WX    TMP DP  RH WIND       PRES   REMARKS
NWS GREEN BAY  CLOUDY    39  36  89 NW3       29.77R
APPLETON       CLOUDY    37  37 100 SW8       29.75R
OSHKOSH        CLOUDY    37  34  89 W5        29.76R
FOND DU LAC    CLOUDY    38  34  85 W5        29.77R
$$

WIZ022-050-052-232300-
EAST CENTRAL WISCONSIN

CITY           SKY/WX    TMP DP  RH WIND       PRES   REMARKS
EPHRAIM        NOT AVBL
WASHINGTON ISL NOT AVBL
STURGEON BAY   NOT AVBL
MANITOWOC      NOT AVBL
SHEBOYGAN      MOCLDY    38  34  85 NW9       29.75R
$$

LMZ563-521-522-541>543-232300-
LAKESHORE

STATION/POSITION TIME  TEMP    WIND        PRES    VSBY  WAVE
                       AIR SEA DIR/SP/G                  HT/PER
                 (UTC) (F)     (DEG/KT/KT) (MB)    (MI)  (FT/S)
SHEBOYGAN LKSHOR 2100   39     330/  6/  8 1007.3R
KEWAUNEE LKSHORE 2130   37     350/  5/  8 1006.8R
NORTHPORT PIER   2140   33     330/  5/  7 1007.5S
SISTER BAY LKSHO 2050   34        CALM       N/A
MENOMINEE LKSHOR 2130           60/  5/  5 1006.7R
$$




USA.gov is the U.S. government's official web portal to all federal, state and local government web resources and services.